{"data":{"norad_id":62272,"intl_designator":"2024-237F","name":"STARLINK-11494 [DTC]","alt_names":[],"object_type":"PAYLOAD","status":"ACTIVE","operator":null,"country":"US","launch_date":"2024-12-08","launch_site_code":"AFETR","launch_vehicle":null,"mission":null,"orbit_class":"UNKNOWN","rcs_meters":null,"size_class":null,"mass_kg":null,"dimensions":null,"purposes":["comms"],"wikipedia_slug":null,"has_3d_model":false,"image_url":null,"decayed_at":null,"tle_current":{"epoch":"2026-05-24T21:21:25.137792Z","epoch_age_seconds":81261,"freshness":"FRESH","line1":"1 62272U 24237F   26144.88987428  .00170364  00000+0  13021-2 0  9997","line2":"2 62272  43.0000 317.5652 0001826 272.3335  87.7324 15.70877546 84989","mean_motion":15.70877546,"eccentricity":0.0001826,"inclination_deg":43,"raan_deg":317.5652,"arg_perigee_deg":272.3335,"mean_anomaly_deg":87.7324,"bstar":0.0013021,"rev_number":8498,"period_min":91.668507431833,"perigee_km":355.15802599177,"apogee_km":357.61747443055,"semimajor_km":6734.5247502112,"source":"CELESTRAK","updated_at":"2026-05-25T13:38:19.642339Z"}}}